DW3319 Weather Reports


time (UTC)temp
C
wind
direction
speed
KPH
gust
KPH
rain 1hr
cm
rain 24hr
cm
rain mn
cm
humidity
%
barometer
mb
20260510043048 20 51 0.0 3.2 0.00 0.18 0.18 98 1012.5
20260510041543 20 178 1.6 6.4 0.00 0.18 0.18 98 1012.8
20260510040042 20 146 1.6 6.4 0.00 0.18 0.18 98 1012.9
20260510034538 20 149 4.8 9.7 0.00 0.18 0.18 98 1012.7
20260510033054 20 153 4.8 11.3 0.00 0.18 0.18 98 1012.6
20260510031548 21 163 1.6 9.7 0.00 0.18 0.18 98 1012.5
20260510030044 21 93 4.8 12.9 0.03 0.18 0.18 98 1012.3
20260510024545 21 70 1.6 14.5 0.03 0.18 0.18 98 1012.4
20260510023047 21 161 8.0 16.1 0.05 0.18 0.18 98 1012.4
20260510021635 21 51 3.2 14.5 0.05 0.18 0.18 98 1012.2
20260510020044 21 131 4.8 17.7 0.03 0.15 0.15 99 1012.2
20260510014554 21 169 6.4 12.9 0.03 0.15 0.15 98 1011.8
20260510013055 21 193 3.2 17.7 0.03 0.13 0.13 98 1011.9
20260510011544 21 137 3.2 12.9 0.03 0.13 0.13 98 1011.3
20260510010049 21 140 8.0 14.5 0.08 0.13 0.13 98 1011.1
20260510004539 21 163 1.6 9.7 0.08 0.20 0.13 98 1011.3
20260510003045 21 157 1.6 4.8 0.05 0.18 0.10 97 1011.5
20260510001544 21 221 0.0 4.8 0.05 0.18 0.10 97 1011.8
20260510000045 21 336 3.2 8.0 0.03 0.13 0.05 97 1011.6
20260509234544 21 137 1.6 4.8 0.03 0.13 0.05 97 1010.8
20260509233041 21 26 1.6 4.8 0.03 0.13 0.05 97 1010.8
20260509231549 21 336 3.2 8.0 0.03 0.13 0.05 96 1010.6
20260509230041 21 115 3.2 11.3 0.00 0.10 0.03 96 1010.9
20260509224542 21 162 4.8 9.7 0.00 0.10 0.03 95 1011.0
20260509223047 21 194 4.8 11.3 0.00 0.10 0.03 95 1010.2
20260509221543 22 188 1.6 8.0 0.00 0.10 0.03 94 1010.3
20260509220047 22 196 1.6 11.3 0.00 0.10 0.03 93 1010.3
20260509214542 22 150 3.2 16.1 0.00 0.13 0.03 92 1010.1
20260509213102 22 158 3.2 11.3 0.00 0.13 0.03 92 1010.0
20260509211544 22 187 4.8 14.5 0.00 0.13 0.03 91 1009.9
20260509210049 22 108 6.4 19.3 0.00 0.13 0.03 92 1009.8
20260509204543 22 151 3.2 12.9 0.00 0.18 0.03 92 1010.1
20260509203042 21 107 3.2 11.3 0.00 0.18 0.03 92 1010.7
20260509201540 21 265 4.8 14.5 0.00 0.18 0.03 92 1010.8
20260509200040 22 162 4.8 14.5 0.00 0.18 0.03 92 1011.0
20260509194554 22 117 4.8 19.3 0.00 0.18 0.03 92 1010.9
20260509193048 22 77 3.2 14.5 0.00 0.18 0.03 92 1010.9
20260509191545 22 169 3.2 11.3 0.00 0.18 0.03 91 1011.0
20260509190040 22 132 1.6 9.7 0.00 0.18 0.03 94 1010.8
20260509184550 23 325 1.6 12.9 0.00 0.18 0.03 96 1010.6
20260509183047 22 115 1.6 9.7 0.00 0.18 0.03 96 1010.7
20260509181550 23 65 1.6 12.9 0.00 0.18 0.03 98 1010.9
20260509180054 23 93 1.6 12.9 0.00 0.18 0.03 99 1010.8
20260509174542 23 265 1.6 9.7 0.00 0.38 0.03 99 1011.0
20260509173052 23 128 1.6 6.4 0.00 0.38 0.03 99 1011.1
20260509171541 23 265 0.0 4.8 0.00 0.38 0.03 100 1011.2
20260509170044 23 51 3.2 11.3 0.00 0.38 0.03 99 1011.4
20260509164544 23 137 3.2 8.0 0.00 3.20 0.03 100 1011.5
20260509163040 23 34 1.6 9.7 0.00 3.20 0.03 100 1011.4
20260509161553 23 123 1.6 6.4 0.00 3.20 0.03 100 1011.5
20260509160039 23 165 1.6 8.0 0.00 3.20 0.03 100 1011.6
20260509154549 22 126 1.6 6.4 0.00 5.36 0.03 100 1011.5
20260509153055 22 9 1.6 6.4 0.00 5.36 0.03 100 1011.1
20260509151541 22 137 1.6 4.8 0.00 5.36 0.03 100 1011.0
20260509150041 22 178 1.6 6.4 0.00 5.36 0.03 100 1011.0
20260509144544 22 319 1.6 4.8 0.00 5.59 0.03 100 1011.0
20260509143043 22 9 1.6 6.4 0.00 5.59 0.03 100 1010.9
20260509141544 22 123 1.6 4.8 0.00 5.59 0.03 100 1010.8
20260509140056 21 178 1.6 6.4 0.00 5.59 0.03 100 1010.7
20260509134541 21 265 1.6 6.4 0.00 5.64 0.03 100 1011.0
20260509133041 21 76 1.6 6.4 0.00 5.64 0.03 100 1010.9
20260509131537 21 22 1.6 8.0 0.00 5.64 0.03 100 1011.1
20260509130044 21 303 1.6 14.5 0.00 5.64 0.03 100 1011.2
20260509124551 21 64 3.2 9.7 0.00 5.64 0.03 100 1011.1
20260509123042 21 9 3.2 8.0 0.00 5.64 0.03 100 1011.0
20260509121538 21 26 0.0 4.8 0.00 5.64 0.03 100 1011.0
20260509120039 21 0 0.0 4.8 0.03 5.64 0.03 100 1010.9
20260509114544 21 119 0.0 3.2 0.03 5.64 0.03 100 1010.9
20260509113044 21 265 1.6 6.4 0.03 5.64 0.03 100 1010.6
20260509111545 21 129 0.0 4.8 0.03 5.64 0.03 100 1010.7
20260509110044 21 0 1.6 6.4 0.00 5.61 0.00 100 1010.6
20260509104541 21 0 0.0 3.2 0.00 5.61 0.00 100 1010.4
20260509103045 21 34 0.0 3.2 0.00 5.61 0.00 100 1010.2
20260509101539 21 265 0.0 3.2 0.00 5.61 0.00 100 1010.0
20260509100043 21 0 0.0 1.6 0.00 5.61 0.00 100 1009.8
20260509094554 21 0 0.0 1.6 0.00 5.61 0.00 100 1009.8
20260509093042 21 0 0.0 3.2 0.00 5.61 0.00 100 1009.6
20260509091547 21 137 1.6 8.0 0.00 5.61 0.00 100 1009.4
20260509090054 20 141 1.6 6.4 0.00 5.61 0.00 100 1009.4
20260509084537 20 137 0.0 1.6 0.00 5.61 0.00 100 1009.5
20260509083043 20 265 0.0 1.6 0.00 5.61 0.00 100 1010.0
20260509081543 20 0 0.0 1.6 0.00 5.61 0.00 99 1009.9
20260509080048 20 9 0.0 1.6 0.00 5.61 0.00 99 1010.0
20260509074555 20 205 0.0 3.2 0.00 5.61 0.00 99 1009.9
20260509073057 20 126 0.0 3.2 0.00 5.61 0.00 99 1009.9
20260509071542 20 165 0.0 8.0 0.00 5.61 0.00 99 1010.1
20260509070048 20 170 3.2 9.7 0.00 5.61 0.00 99 1010.2
20260509064541 20 173 4.8 9.7 0.00 5.61 0.00 100 1010.3
20260509063053 20 178 3.2 8.0 0.00 5.61 0.00 99 1010.4
20260509061545 20 160 3.2 11.3 0.00 5.61 0.00 99 1010.5
20260509060106 20 161 4.8 9.7 0.00 5.61 0.00 99 1010.7
20260509054543 20 157 3.2 8.0 0.00 5.61 0.00 99 1011.0
20260509053054 20 144 1.6 8.0 0.00 5.61 0.00 99 1011.0
20260509051546 20 146 1.6 8.0 0.00 5.61 0.00 99 1011.0
20260509050049 20 149 1.6 8.0 0.00 5.61 0.00 99 1011.3
20260509044537 20 153 3.2 9.7 0.00 5.61 5.61 99 1011.3